Torna al catalogo

STARLINK-33927

AttivoComunicazioniVLEO
NORAD 64001·PAYLOAD·🇺🇸 United States

Lanciato May 14, 2025 da Cape Canaveral Space Force Station

Loading…

Prossimi Passaggi (prossime 24 ore)

TLE

AggiornatoSource: CelesTrak SupGP

Epoca: Sep 15, 2026, 02:32 UTC

1 64001C 25101H   26258.10604167  .00011360  00000+0  41147-3 0  2586
2 64001  43.0023   8.6807 0001524 263.8713 285.7808 15.27571446    17

Traccia STARLINK-33927 in tempo reale con AllMySat

Download on the App Store